Regional Weather Roundup
Issued by NWS Cleveland, OH

Home | Current Version | Previous Version | Graphics & Text | Print | Product List | Glossary On
Versions: 1 2 3 4 5 6 7 8 9 10 11 12 13 14 15 16 17 18 19 20 21 22 23 24 25 26 27 28 29 30 31 32 33 34 35 36 37 38 39 40 41 42 43 44 45 46 47 48 49 50
000
ASUS41 KCLE 010302
RWRCLE
OHIO REGIONAL WEATHER ROUNDUP
NATIONAL WEATHER SERVICE CLEVELAND, OH
1100 PM EDT THU JUL 31 2014

NOTE: "FAIR" INDICATES FEW OR NO CLOUDS BELOW 12,000 FEET WITH NO
SIGNIFICANT WEATHER AND/OR OBSTRUCTIONS TO VISIBILITY.

OHZ001>008-015>018-024>027-034-035-043-044-010400-
   NORTHWEST OHIO

CITY           SKY/WX    TMP DP  RH WIND       PRES   REMARKS
DEFIANCE       CLOUDY    67  62  84 CALM      30.08R
FINDLAY        MOCLDY    68  60  75 SW3       30.08R
TOLEDO EXPRESS CLEAR     65  60  84 SW3       30.06S
TOLEDO EXEC    CLEAR     69  59  70 SW5       30.07R
LIMA           CLEAR     69  61  75 SW3       30.10R
$$

OHZ009>014-019>023-028>033-038-089-010400-
   NORTHEAST OHIO

CITY           SKY/WX    TMP DP  RH WIND       PRES   REMARKS
CLE-HOPKINS    MOCLDY    70  58  65 S7        30.10S
CLE-LAKEFRONT  PTCLDY    73  58  59 S7        30.06S
CUY CO. ARPT   PTCLDY    68  59  73 S8        30.09S
LORAIN-ELYRIA  PTCLDY    69  59  70 S5        30.09R
ASHTABULA      CLEAR     62  56  80 S5        30.10S
AKRON-CANTON   PTCLDY    69  56  62 S3        30.11S
WOOSTER        CLEAR     62  56  80 CALM      30.12R
MANSFIELD      CLEAR     66  59  78 S3        30.11S
YOUNGSTOWN     PTCLDY    62  56  80 S6        30.11S
$$

OHZ042-051>053-060>062-070>072-077>081-010400-
  SOUTHWEST OHIO

CITY           SKY/WX    TMP DP  RH WIND       PRES   REMARKS
CINC-COVINGTON NOT AVBL
CINC-LUNKEN    PTCLDY    66  62  87 S5        30.09S
HAMILTON       MOCLDY    65  63  93 CALM      30.10R
DAYTON         CLEAR     69  60  73 SW5       30.11R
WRIGHT-PAT AFB CLEAR     68  61  78 N1        30.10R
DAYTON GENERAL PTCLDY    69  61  75 CALM      30.10R
WILMINGTON     CLOUDY    69  64  84 CALM      30.11R
$$

OHZ036-037-039>041-045>050-054>059-063>069-073>076-082>088-010400-
  CENTRAL AND SOUTHEAST OHIO

CITY           SKY/WX    TMP DP  RH WIND       PRES   REMARKS
COLUMBUS       PTCLDY    70  60  70 CALM      30.09S
OSU AIRPORT    CLEAR     68  60  75 SW3       30.10R
BOLTON FIELD   CLEAR     65  63  94 CALM      30.10S
RICKENBACK AFB CLEAR     69  61  75 CALM      30.09S
NEWARK         CLEAR     64  62  93 CALM      30.10S
MARION         CLEAR     65  59  81 S3        30.10R
LANCASTER      CLEAR     63  60  90 CALM      30.11R
ZANESVILLE     CLEAR     66  62  87 S3        30.11S
NEW PHILLY     CLEAR     64  62  93 CALM      30.12R
$$



USA.gov is the U.S. government's official web portal to all federal, state and local government web resources and services.